EUTELSAT 8 WEST B

Last updated on Oct. 24, 2020, 5:54 a.m. UTC

1 40875U 15039B   20297.75739466 -.00000080  00000-0  00000-0 0  9998
2 40875   0.0738 350.2716 0002882 190.5839 116.4681  1.00271259 18972
UTC
Height (km)
Latitude
Longitude
Inclination
Orbital Period
UTC large
Height (km)
Speed (km/s)
/
Latitude / Longitude
Inclination (degrees)
Orbital Period (minutes)
Azimuth
Elevation
Range (km)
Doppler Factor
iOS Compass Heading
iOS Angle

Next 30 passes for location: Hong Kong

Rise time Rise Azimuth (degrees) Set time Set Azimuth (degrees) Duration Max altitude (degrees)

No matching passes for this satellites